DW8065 Weather Reports


Display with metric or nautical units.
time (UTC)temp
F
wind
direction
speed
MPH
gust
MPH
rain 1hr
in
rain 24hr
in
rain mn
in
humidity
%
barometer
mb
20260906234517 60 280 0.0 2.0 0.00 0.78 0.66 71 1015.8
20260906233015 61 281 0.0 2.0 0.00 0.78 0.66 69 1015.8
20260906231515 61 288 0.0 3.0 0.00 0.78 0.66 68 1015.6
20260906230014 61 195 0.0 2.0 0.00 0.78 0.66 67 1015.7
20260906224514 62 202 0.0 1.0 0.00 0.81 0.66 66 1015.5
20260906223014 64 266 0.0 2.0 0.00 0.81 0.66 62 1015.5
20260906221513 65 282 0.0 1.0 0.00 0.81 0.66 60 1015.5
20260906220012 68 278 0.0 1.0 0.00 0.81 0.66 56 1015.4
20260906214511 67 277 0.0 2.0 0.00 0.81 0.66 53 1015.4
20260906213011 67 276 2.0 6.0 0.00 0.81 0.66 52 1015.5
20260906211511 67 342 9.0 12.0 0.00 0.81 0.66 49 1015.4
20260906210009 67 9 8.0 12.0 0.00 0.81 0.66 51 1015.4
20260906204508 67 314 8.0 14.0 0.00 0.81 0.66 51 1015.3
20260906203008 67 314 11.0 19.0 0.00 0.81 0.66 46 1015.3
20260906201506 67 354 10.0 13.0 0.00 0.81 0.66 48 1015.2
20260906200005 67 341 8.0 15.0 0.00 0.81 0.66 49 1015.1
20260906194503 67 328 8.0 17.0 0.00 0.81 0.66 50 1015.1
20260906193108 67 340 8.0 18.0 0.00 0.81 0.66 51 1015.0
20260906193002 67 340 8.0 18.0 0.00 0.81 0.66 52 1015.0
20260906191620 67 331 8.0 16.0 0.00 0.81 0.66 52 1015.1
20260906190100 66 332 6.0 17.0 0.00 0.81 0.66 54 1015.1
20260906184556 66 309 8.0 13.0 0.00 0.81 0.66 57 1015.0
20260906183100 66 323 8.0 14.0 0.00 0.81 0.66 56 1015.0
20260906181556 66 337 9.0 15.0 0.00 0.81 0.66 60 1015.2
20260906180051 65 322 8.0 14.0 0.00 0.81 0.66 61 1015.3
20260906174605 65 343 11.0 18.0 0.00 0.81 0.66 63 1015.4
20260906173047 65 322 3.0 11.0 0.00 0.81 0.66 69 1015.4
20260906171546 65 10 5.0 21.0 0.00 0.81 0.66 64 1015.5
20260906170043 64 326 10.0 17.0 0.00 0.81 0.66 63 1015.7
20260906164540 63 318 4.0 9.0 0.00 0.81 0.66 73 1015.8
20260906163048 63 314 9.0 17.0 0.00 0.81 0.66 74 1016.1
20260906161544 62 326 4.0 10.0 0.00 0.81 0.66 73 1016.1
20260906160034 62 326 6.0 16.0 0.00 0.81 0.66 77 1016.2
20260906154532 62 318 9.0 15.0 0.00 0.81 0.66 79 1016.3
20260906153030 61 326 6.0 17.0 0.00 0.81 0.66 81 1016.4
20260906151529 61 323 5.0 10.0 0.00 0.81 0.66 79 1016.5
20260906150029 61 312 5.0 13.0 0.00 0.81 0.66 83 1016.4
20260906144527 61 335 5.0 8.0 0.00 0.81 0.66 82 1016.5
20260906143024 61 319 2.0 8.0 0.00 0.81 0.66 80 1016.5
20260906141522 60 331 5.0 14.0 0.00 0.81 0.66 82 1016.4
20260906140020 60 321 7.0 12.0 0.00 0.81 0.66 86 1016.3
20260906134516 59 323 5.0 10.0 0.00 0.81 0.66 86 1016.2
20260906133015 59 15 3.0 7.0 0.00 0.81 0.66 89 1016.2
20260906131514 58 288 0.0 2.0 0.00 0.81 0.66 90 1016.2
20260906130016 58 305 0.0 3.0 0.00 0.81 0.66 92 1016.2
20260906124516 57 333 0.0 0.0 0.00 0.81 0.66 93 1016.2
20260906123029 57 203 0.0 0.0 0.00 0.81 0.66 93 1016.1
20260906121509 56 203 0.0 0.0 0.00 0.81 0.66 93 1016.0
20260906120008 56 203 0.0 0.0 0.00 0.81 0.66 93 1016.0
20260906114507 56 203 0.0 0.0 0.00 0.81 0.66 93 1015.9
20260906113006 55 203 0.0 0.0 0.01 0.81 0.66 93 1015.7
20260906111506 55 203 0.0 0.0 0.03 0.81 0.66 93 1015.8
20260906110002 55 203 0.0 0.0 0.09 0.81 0.66 93 1015.5
20260906104501 55 203 0.0 0.0 0.17 0.81 0.66 93 1015.3
20260906103001 55 203 0.0 0.0 0.33 0.80 0.65 93 1015.2
20260906101600 55 203 0.0 0.0 0.40 0.78 0.63 93 1015.2
20260906100057 55 203 0.0 0.0 0.35 0.72 0.56 93 1015.1
20260906094555 55 203 0.0 0.0 0.33 0.64 0.49 92 1014.9
20260906093101 56 193 0.0 0.0 0.20 0.47 0.32 92 1014.9
20260906091549 57 179 0.0 1.0 0.11 0.38 0.23 92 1014.5
20260906090047 58 20 0.0 4.0 0.11 0.37 0.22 93 1014.4
20260906084551 58 23 2.0 4.0 0.06 0.31 0.16 92 1014.4
20260906083044 58 17 3.0 6.0 0.02 0.27 0.12 92 1014.4
20260906081550 58 356 3.0 5.0 0.03 0.27 0.12 93 1014.2
20260906080040 58 28 0.0 3.0 0.02 0.26 0.11 93 1014.1
20260906074539 58 14 0.0 1.0 0.01 0.25 0.10 93 1014.0
20260906073050 58 276 0.0 1.0 0.02 0.25 0.10 93 1014.0
20260906071538 58 276 0.0 0.0 0.01 0.24 0.09 93 1014.0
20260906070040 58 276 0.0 0.0 0.01 0.24 0.09 92 1013.9
20260906064535 58 276 0.0 1.0 0.01 0.24 0.09 92 1013.9
20260906063034 58 276 0.0 1.0 0.02 0.23 0.08 92 1013.9
20260906061534 58 274 0.0 1.0 0.05 0.23 0.08 92 1013.9
20260906060032 58 296 0.0 2.0 0.05 0.23 0.08 92 1013.9
20260906054531 58 170 0.0 2.0 0.06 0.23 0.08 92 1013.6
20260906053036 59 183 0.0 2.0 0.06 0.21 0.06 91 1013.6
20260906051527 59 295 2.0 5.0 0.03 0.18 0.03 92 1013.8
20260906050024 59 286 0.0 3.0 0.03 0.18 0.03 92 1013.7
20260906044519 59 271 0.0 1.0 0.02 0.17 0.02 93 1013.6
20260906043024 59 236 0.0 1.0 0.00 0.15 0.00 93 1013.6
20260906041517 59 191 0.0 0.0 0.00 0.15 0.00 93 1013.8
20260906040015 58 191 0.0 0.0 0.00 0.15 0.00 93 1013.6
20260906034520 58 191 0.0 0.0 0.00 0.15 0.15 93 1013.5
20260906033013 58 191 0.0 0.0 0.00 0.15 0.15 93 1013.5
20260906031512 58 195 0.0 1.0 0.00 0.15 0.15 92 1013.5
20260906030010 58 198 0.0 0.0 0.00 0.15 0.15 92 1013.4
20260906024510 58 198 0.0 0.0 0.00 0.15 0.15 92 1013.4
20260906023010 58 198 0.0 0.0 0.00 0.15 0.15 92 1013.3
20260906021509 59 198 0.0 0.0 0.00 0.15 0.15 92 1013.3
20260906020008 59 198 0.0 0.0 0.00 0.15 0.15 92 1013.4
20260906014507 59 198 0.0 0.0 0.01 0.15 0.15 92 1013.1
20260906013005 59 198 0.0 0.0 0.01 0.15 0.15 92 1013.3
20260906011504 60 198 0.0 0.0 0.05 0.15 0.15 92 1013.4
20260906010002 60 177 0.0 0.0 0.06 0.15 0.15 92 1013.4
20260906004612 60 177 0.0 0.0 0.09 0.14 0.14 92 1013.3
20260906003058 60 176 0.0 0.0 0.10 0.14 0.14 91 1013.1
20260906001556 61 176 0.0 0.0 0.07 0.10 0.10 91 1013.1
20260906000105 61 176 0.0 1.0 0.06 0.09 0.09 91 1012.9